軌道要素
Epoch 2017 June 16.0 TT = JDT 2457920.5
T 2017 June 21.60830 TT MPCW
q 2.5359588 (2000.0) P Q
n 0.05779087 Peri. 309.08415 +0.89777619 +0.40663765
a 6.6256716 Node 28.15752 -0.20241520 +0.72218123
e 0.6172526 Incl. 21.01714 -0.39118538 +0.55955348
P 17.05
From 562 observations 2000 Aug. 26-2018 Jan. 14, mean residual 0".6.
|